Location: Mannheim
(49.4880°N, 8.4650°E)
Time: 09:23:48
(UTC+02:00)

ISS - Pass Details

Date: 30 May 2022
Orbit: 414 x 420 km, 51.6° (Epoch: 30 June)

Event Time Altitude Azimuth Distance (km) Brightness Sun altitude
Rises 22:24:10 0° 284° (WNW) 2,371 1.1 -8.3°
Reaches altitude 10° 22:26:42 10° 265° (W) 1,500 -0.4 -8.5°
Maximum altitude 22:29:04 18° 220° (SW) 1,098 -1.7 -8.8°
Drops below altitude 10° 22:31:27 10° 175° (S) 1,490 -1.5 -9.0°
Enters shadow 22:31:39 - 173° (S) 1,551 -1.4 -9.1°
